SCP
-0 -0 -1 -0 -0 -0 -1 -1 -2 -1 -1 -1 -0 -0 -0 -0 -0 0 0 0 0 0 0 0 0 0 -0 -0 -0 0 0 0 0 0 0 0 0 0 0 0 0 0 0
-0 -1 -1 -1 -1 -0 -1 -1 -2 -2 -1 -1 -0 -0 -0 -0 0 0 0 0 0 0 0 0 -0 -0 -0 -0 0 0 0 0 0 0 0 0 0 0 0 0 0 0 0
-0 -1 -1 -1 -1 -1 -1 -1 -1 -2 -1 -1 -0 -0 -0 -0 0 0 0 0 0 0 0 0 0 0 -0 -0 -0 -0 0 0 0 0 0 0 0 0 0 0 0 0 0
-0 -0 -0 -0 -1 -1 -1 -1 -1 -1 -1 -1 -0 -0 -0 0 0 0 0 0 0 0 0 0 -0 -0 0 0 -0 -0 0 0 0 0 0 0 0 0 0 0 0 0 0
-0 -0 -0 -1 -1 -1 -1 -1 -1 -1 -1 -1 -0 -0 -0 0 0 0 0 0 0 0 0 -0 -0 -0 -0 0 0 0 0 0 0 0 0 0 0 0 0 0 0 0 0
0 0 -0 -0 -0 -1 -1 -1 -1 -1 -1 -0 -0 -0 0 0 0 0 0 0 0 0 0 -0 -0 -0 -0 0 0 0 0 0 0 0 0 0 0 0 0 0 0 0 0
0 0 0 -0 -0 -0 -0 -0 -1 -1 -0 -0 -0 -0 0 0 0 0 0 0 0 0 0 0 -0 -0 0 0 0 0 0 0 0 0 0 0 0 0 0 0 0 0 0
1 1 0 0 0 0 0 -0 -0 -0 -0 -0 -0 0 0 0 0 0 0 0 0 0 0 -0 -0 0 0 0 0 0 0 0 0 0 0 0 0 0 0 0 0 0 0
0 1 1 0 0 0 0 0 0 -0 -0 -0 -0 0 0 0 0 0 0 0 0 0 -0 -0 -0 -0 0 0 0 0 0 0 0 0 0 0 0 0 0 0 0 0 0
0 1 1 0 0 0 0 0 0 0 0 0 0 0 0 0 0 -0 -0 -0 -0 -0 -0 -0 -0 -0 0 0 0 0 0 0 0 0 0 0 0 0 0 0 1 1 0
0 0 1 1 0 0 0 0 0 0 0 -0 -0 -0 -0 -0 -0 -0 -0 0 0 0 -0 -0 -0 -0 -0 0 0 0 0 0 0 0 0 0 0 0 0 0 1 1 1
0 0 1 1 1 1 0 0 0 0 0 0 -0 -0 -0 -0 -0 -0 -0 -0 -0 -0 0 -0 -0 -0 -0 -0 -0 -0 -0 -0 -0 0 0 0 0 0 0 0 0 1 1
0 1 1 1 1 1 1 1 1 0 0 0 0 -0 -0 -0 -0 -0 0 0 0 0 0 0 0 0 0 -0 -0 -0 -0 -0 0 0 0 0 0 0 0 0 0 1 1
1 1 1 1 1 1 1 1 1 1 1 0 0 0 0 0 0 0 0 0 0 0 0 0 0 0 0 0 0 -0 0 0 0 0 0 0 0 0 0 0 0 1 1
1 1 1 1 2 2 2 1 1 1 1 1 1 0 0 0 0 0 0 0 0 0 0 0 0 0 0 0 0 0 0 -0 -0 0 0 0 0 0 0 0 -0 0 1
1 1 1 1 3 2 2 2 2 2 2 2 1 1 1 1 1 0 0 0 0 0 0 0 0 0 0 0 0 0 0 0 0 0 0 0 0 0 0 0 0 0 1
1 1 1 2 3 3 3 4 4 3 3 2 2 2 1 1 1 0 0 0 0 0 0 0 0 0 0 0 0 0 0 0 0 0 0 0 0 0 -0 0 0 0 1
1 2 2 2 2 3 3 4 4 3 3 3 3 2 1 1 1 1 1 1 0 0 0 0 0 0 0 0 0 0 0 0 0 0 0 0 0 -0 -0 -0 0 0 1
1 2 2 2 2 2 2 3 3 4 3 3 3 3 2 1 1 2 1 1 1 1 0 0 0 0 1 1 1 1 0 0 0 0 0 0 0 -0 -1 -0 -0 0 1
0 2 3 3 3 2 3 4 4 4 3 2 1 2 3 1 1 2 2 1 1 1 1 1 1 1 1 1 0 0 1 1 0 0 0 0 0 0 -0 -1 -0 0 0
0 0 1 2 3 4 4 4 5 4 4 4 3 2 1 2 2 2 2 2 2 2 1 1 1 1 1 0 1 1 1 1 0 1 1 1 0 0 0 -0 0 0 1
0 0 1 2 4 4 6 6 5 4 4 4 4 3 3 2 3 3 3 2 1 1 2 2 2 2 2 1 2 1 0 1 1 1 1 0 1 0 0 0 0 0 1
0 0 0 2 5 6 6 6 6 4 4 3 2 2 1 2 2 3 3 4 2 2 2 2 3 4 4 2 3 3 1 0 1 1 1 1 1 1 1 0 0 0 1
0 0 0 1 4 5 8 9 6 5 4 3 3 2 2 2 2 2 3 3 3 3 2 3 4 5 6 7 3 1 1 1 1 0 1 0 0 1 1 0 0 0 0
0 0 0 1 2 4 7 8 7 6 4 4 3 3 3 2 2 2 2 2 3 3 3 3 4 4 5 5 4 4 3 1 0 0 0 1 1 1 0 0 0 0 0
0 0 0 1 2 4 5 6 7 5 5 5 5 5 5 4 3 3 2 3 3 3 4 4 2 0 1 0 0 0 -0 0 1 1 2 2 1 1 0 0 0 0 1
Wind_Speed_500mb
59 56 57 60 59 58 55 54 49 46 48 49 45 40 32 26 29 33 34 34 33 32 29 26 25 24 24 25 28 31 33 32 33 33 34 33 32 29 28 26 24 20 19
56 58 60 63 62 59 54 49 46 47 51 51 44 37 29 28 31 34 36 35 34 31 29 27 27 27 27 28 28 27 27 28 30 31 31 31 32 31 28 27 24 22 21
56 58 61 63 62 58 52 47 46 47 55 52 44 37 31 29 34 36 36 35 35 32 29 29 27 27 27 27 26 24 23 23 23 24 25 28 28 31 30 28 26 25 23
55 59 62 64 62 57 52 46 44 47 55 51 44 38 33 34 37 38 38 36 35 33 31 28 26 26 26 25 23 21 21 21 20 21 23 22 24 27 29 30 27 25 22
57 58 61 64 63 59 53 49 47 50 54 52 45 40 37 39 41 40 39 37 35 33 30 28 25 24 23 21 18 17 16 15 17 20 17 15 15 18 23 26 29 26 23
56 57 61 62 63 60 56 52 50 52 55 53 48 44 41 42 43 42 41 38 36 32 29 26 23 20 17 15 13 11 10 10 10 11 13 14 10 9 14 18 22 22 23
61 61 62 62 60 58 55 52 50 51 54 54 51 48 47 46 44 43 41 38 35 31 28 25 22 19 16 13 10 6 4 4 7 9 7 10 8 6 8 11 13 16 18
59 60 60 61 59 57 54 50 48 50 53 54 52 50 49 48 47 45 41 37 34 31 27 23 19 15 12 8 5 2 2 5 8 10 11 11 6 2 5 8 11 12 13
57 60 63 63 60 57 55 50 46 49 52 55 55 53 52 50 48 45 41 37 33 30 26 22 17 13 9 6 2 3 6 7 9 10 10 13 8 4 3 5 9 12 10
49 55 60 64 63 61 58 52 47 49 52 54 57 56 54 52 49 46 42 38 33 28 24 20 17 13 8 5 4 4 8 10 9 10 9 14 12 5 5 6 9 11 12
51 54 60 63 68 68 64 57 50 49 52 55 56 57 57 55 52 49 45 39 33 28 24 21 17 13 10 8 7 7 8 10 9 9 12 17 14 10 7 10 14 16 15
52 57 62 65 69 69 68 64 58 58 60 62 62 62 61 60 57 52 45 39 33 29 26 21 17 13 10 10 9 7 2 1 2 3 7 13 13 13 14 15 16 18 15
56 60 65 66 69 71 73 71 69 68 68 69 67 66 65 62 59 55 49 43 39 35 29 23 17 13 12 13 9 6 5 3 1 4 6 9 11 10 9 11 12 15 15
56 59 62 66 70 71 75 75 73 73 73 73 72 70 68 65 60 55 50 46 40 35 29 23 16 12 8 9 8 6 4 3 7 11 13 16 18 16 14 11 12 13 13
56 58 64 67 70 72 76 77 79 78 76 74 73 73 73 70 65 59 53 48 43 36 30 22 16 13 10 9 7 5 6 8 10 13 15 18 18 18 18 16 13 12 13
55 55 61 65 68 67 74 79 82 80 78 77 74 74 72 67 64 60 54 50 45 40 30 24 21 18 16 14 14 13 13 16 15 12 17 18 20 21 19 17 15 16 20
57 57 57 59 66 67 72 75 79 82 81 79 78 77 75 70 67 63 57 52 43 38 31 28 24 19 19 17 19 22 22 22 17 11 8 14 21 22 18 18 14 18 22
66 60 54 59 58 66 68 74 82 85 84 85 83 80 75 69 70 66 62 55 48 43 35 35 29 27 23 21 22 24 25 24 23 13 5 7 22 21 14 10 12 22 26
68 58 56 59 61 59 62 70 82 85 86 79 71 80 72 75 76 71 67 60 51 45 42 42 37 35 30 24 26 28 31 29 28 22 11 2 20 19 16 16 19 24 27
68 66 66 62 60 61 62 71 80 83 84 83 69 64 84 94 83 74 68 63 57 54 49 50 41 42 33 26 23 27 30 28 29 24 13 11 11 26 17 19 25 31 30
70 78 76 72 69 71 72 76 79 79 81 81 92 84 84 80 83 69 68 65 66 59 53 51 41 44 37 23 16 24 25 25 25 16 18 11 15 24 32 35 49 38 33
71 76 88 86 83 79 78 79 80 79 77 78 72 69 72 73 76 79 73 67 70 67 63 64 54 48 44 32 23 18 15 20 4 8 25 27 24 32 46 52 57 52 39
64 72 84 88 93 90 89 85 81 74 68 67 69 67 64 65 69 62 72 76 71 70 67 64 61 63 52 43 31 15 7 9 33 26 30 31 32 44 47 46 49 47 59
38 53 75 88 96 100 98 88 83 79 71 63 61 61 60 63 63 60 65 64 62 56 60 64 55 58 52 40 27 24 27 41 36 43 62 54 47 48 43 49 54 60 54
42 40 46 69 92 98 99 90 85 79 72 62 55 50 53 59 63 55 50 51 50 58 61 53 57 53 54 49 35 42 65 82 77 64 62 67 76 61 47 53 70 63 67
56 52 48 52 63 81 90 84 81 73 65 58 50 52 54 56 56 57 60 62 59 57 59 62 61 53 39 46 49 91 105 81 63 65 69 77 63 75 71 70 75 78 58
Wind_Direction_500mb
182 183 181 177 175 174 174 171 169 168 169 164 157 152 152 148 145 142 139 140 142 141 139 134 132 129 119 114 112 107 104 98 92 86 81 78 75 69 63 60 58 57 60
177 180 179 177 177 177 179 178 176 172 171 167 161 161 163 153 149 144 143 145 144 143 140 137 132 124 121 119 118 111 105 98 89 82 79 78 75 71 69 67 63 55 54
179 175 178 176 178 177 178 177 177 175 171 170 169 170 169 158 152 149 147 147 145 143 142 136 131 127 125 122 119 114 102 93 87 84 80 74 72 69 67 64 61 52 48
179 175 178 177 178 178 178 178 176 175 174 174 175 177 171 163 157 153 149 150 148 145 143 139 134 131 129 127 123 112 100 95 88 84 75 74 70 65 62 60 56 51 47
181 177 179 178 179 180 180 180 181 180 180 181 183 181 174 166 161 156 154 154 152 151 148 143 137 133 133 131 122 114 101 90 77 72 69 68 68 61 58 52 50 46 41
180 182 182 183 182 183 184 185 188 187 187 189 187 183 175 170 164 160 159 158 158 156 152 146 139 135 134 131 123 114 95 76 60 59 57 50 48 49 57 49 46 38 36
178 183 185 185 187 188 189 191 194 192 190 191 189 183 177 173 168 166 164 164 162 160 154 151 143 144 142 139 134 121 85 36 12 5 18 20 25 38 36 33 27 23 21
181 184 187 188 190 193 194 197 198 196 193 191 189 185 179 176 172 171 171 170 168 163 160 153 148 147 140 129 118 114 15 348 351 334 333 323 328 343 16 8 3 356 357
184 187 189 189 193 197 199 201 202 201 198 194 191 187 183 181 178 177 178 177 172 169 164 156 156 155 147 134 127 325 332 331 328 322 331 336 328 266 296 330 347 332 321
190 196 195 193 194 197 202 204 207 206 202 199 193 189 187 185 184 184 183 181 179 175 170 167 171 168 166 175 211 267 290 294 302 298 304 317 336 298 252 273 311 307 297
196 200 203 200 199 198 201 204 208 209 205 201 198 195 191 191 188 189 189 186 183 182 182 181 184 184 190 204 236 261 278 284 284 293 298 305 319 326 306 281 297 298 288
201 203 206 206 204 203 203 203 206 206 203 202 201 200 198 195 193 194 193 192 190 191 194 195 197 204 217 233 244 254 224 104 19 348 302 293 293 298 301 293 291 288 281
207 207 209 211 210 207 205 206 204 206 205 202 202 204 202 200 200 197 195 197 197 199 201 204 208 225 248 254 246 192 177 156 35 336 312 300 292 288 285 292 297 298 283
222 219 215 216 216 213 210 209 209 210 208 206 203 204 207 205 206 203 201 204 206 208 210 212 222 241 230 204 191 187 198 275 333 330 321 302 295 291 284 282 296 320 307
229 229 226 222 220 218 215 214 213 213 213 212 209 208 209 209 209 208 207 207 213 216 220 224 229 236 233 229 227 228 265 298 323 334 337 317 305 293 286 273 274 291 312
235 233 230 229 232 226 221 220 220 218 216 215 215 216 216 215 214 217 214 215 216 221 227 233 236 237 245 260 270 279 282 287 302 329 332 323 307 294 283 278 281 292 298
233 223 226 229 233 232 229 227 226 223 221 220 219 221 220 219 221 223 222 225 223 234 231 244 250 244 251 262 276 283 287 286 290 324 325 343 343 330 299 278 283 294 292
234 229 228 228 228 232 228 228 228 226 225 225 224 226 227 226 226 227 229 228 233 231 232 241 243 251 252 266 280 289 290 287 290 295 276 34 22 15 356 330 324 318 286
233 225 229 228 227 226 228 228 230 230 229 230 234 238 237 239 232 228 232 232 232 235 239 244 247 250 258 266 276 285 293 291 292 286 247 115 18 7 335 330 306 317 304
235 231 230 224 220 220 223 226 230 232 232 225 222 224 212 241 237 231 232 237 236 234 236 242 248 257 259 267 276 289 300 303 301 283 238 245 335 2 351 339 335 330 314
244 239 233 231 228 226 224 226 231 235 237 232 233 232 230 227 238 240 240 239 243 239 234 239 241 256 250 258 268 292 315 303 308 276 197 268 294 337 358 355 353 340 316
241 241 236 235 235 232 231 234 234 238 240 242 238 234 235 226 222 231 240 248 248 242 241 239 239 242 246 239 246 298 313 311 173 9 238 304 299 293 329 336 342 339 312
242 236 235 233 232 234 235 234 233 234 236 237 234 230 227 227 223 225 226 236 247 252 246 244 238 234 234 240 235 224 217 274 325 323 308 295 310 325 315 306 330 329 323
273 254 238 233 233 234 235 235 234 236 231 233 234 229 225 222 225 229 233 237 248 250 249 242 241 240 227 233 227 252 255 284 292 299 296 296 298 297 303 317 331 323 323
271 269 252 237 233 234 234 233 231 231 234 233 229 226 222 226 228 231 232 239 244 245 246 245 237 232 227 226 239 272 290 287 287 275 278 281 290 282 296 305 313 317 311
270 265 257 244 233 232 234 231 230 233 232 227 223 215 217 222 228 235 238 247 251 251 247 244 243 243 238 265 256 278 275 275 276 276 273 278 279 285 291 302 310 305 298
Wind_Speed_850mb
59 56 57 60 59 58 55 54 49 46 48 49 45 40 32 26 29 33 34 34 33 32 29 26 25 24 24 25 28 31 33 32 33 33 34 33 32 29 28 26 24 20 19
56 58 60 63 62 59 54 49 46 47 51 51 44 37 29 28 31 34 36 35 34 31 29 27 27 27 27 28 28 27 27 28 30 31 31 31 32 31 28 27 24 22 21
56 58 61 63 62 58 52 47 46 47 55 52 44 37 31 29 34 36 36 35 35 32 29 29 27 27 27 27 26 24 23 23 23 24 25 28 28 31 30 28 26 25 23
55 59 62 64 62 57 52 46 44 47 55 51 44 38 33 34 37 38 38 36 35 33 31 28 26 26 26 25 23 21 21 21 20 21 23 22 24 27 29 30 27 25 22
57 58 61 64 63 59 53 49 47 50 54 52 45 40 37 39 41 40 39 37 35 33 30 28 25 24 23 21 18 17 16 15 17 20 17 15 15 18 23 26 29 26 23
56 57 61 62 63 60 56 52 50 52 55 53 48 44 41 42 43 42 41 38 36 32 29 26 23 20 17 15 13 11 10 10 10 11 13 14 10 9 14 18 22 22 23
61 61 62 62 60 58 55 52 50 51 54 54 51 48 47 46 44 43 41 38 35 31 28 25 22 19 16 13 10 6 4 4 7 9 7 10 8 6 8 11 13 16 18
59 60 60 61 59 57 54 50 48 50 53 54 52 50 49 48 47 45 41 37 34 31 27 23 19 15 12 8 5 2 2 5 8 10 11 11 6 2 5 8 11 12 13
57 60 63 63 60 57 55 50 46 49 52 55 55 53 52 50 48 45 41 37 33 30 26 22 17 13 9 6 2 3 6 7 9 10 10 13 8 4 3 5 9 12 10
49 55 60 64 63 61 58 52 47 49 52 54 57 56 54 52 49 46 42 38 33 28 24 20 17 13 8 5 4 4 8 10 9 10 9 14 12 5 5 6 9 11 12
51 54 60 63 68 68 64 57 50 49 52 55 56 57 57 55 52 49 45 39 33 28 24 21 17 13 10 8 7 7 8 10 9 9 12 17 14 10 7 10 14 16 15
52 57 62 65 69 69 68 64 58 58 60 62 62 62 61 60 57 52 45 39 33 29 26 21 17 13 10 10 9 7 2 1 2 3 7 13 13 13 14 15 16 18 15
56 60 65 66 69 71 73 71 69 68 68 69 67 66 65 62 59 55 49 43 39 35 29 23 17 13 12 13 9 6 5 3 1 4 6 9 11 10 9 11 12 15 15
56 59 62 66 70 71 75 75 73 73 73 73 72 70 68 65 60 55 50 46 40 35 29 23 16 12 8 9 8 6 4 3 7 11 13 16 18 16 14 11 12 13 13
56 58 64 67 70 72 76 77 79 78 76 74 73 73 73 70 65 59 53 48 43 36 30 22 16 13 10 9 7 5 6 8 10 13 15 18 18 18 18 16 13 12 13
55 55 61 65 68 67 74 79 82 80 78 77 74 74 72 67 64 60 54 50 45 40 30 24 21 18 16 14 14 13 13 16 15 12 17 18 20 21 19 17 15 16 20
57 57 57 59 66 67 72 75 79 82 81 79 78 77 75 70 67 63 57 52 43 38 31 28 24 19 19 17 19 22 22 22 17 11 8 14 21 22 18 18 14 18 22
66 60 54 59 58 66 68 74 82 85 84 85 83 80 75 69 70 66 62 55 48 43 35 35 29 27 23 21 22 24 25 24 23 13 5 7 22 21 14 10 12 22 26
68 58 56 59 61 59 62 70 82 85 86 79 71 80 72 75 76 71 67 60 51 45 42 42 37 35 30 24 26 28 31 29 28 22 11 2 20 19 16 16 19 24 27
68 66 66 62 60 61 62 71 80 83 84 83 69 64 84 94 83 74 68 63 57 54 49 50 41 42 33 26 23 27 30 28 29 24 13 11 11 26 17 19 25 31 30
70 78 76 72 69 71 72 76 79 79 81 81 92 84 84 80 83 69 68 65 66 59 53 51 41 44 37 23 16 24 25 25 25 16 18 11 15 24 32 35 49 38 33
71 76 88 86 83 79 78 79 80 79 77 78 72 69 72 73 76 79 73 67 70 67 63 64 54 48 44 32 23 18 15 20 4 8 25 27 24 32 46 52 57 52 39
64 72 84 88 93 90 89 85 81 74 68 67 69 67 64 65 69 62 72 76 71 70 67 64 61 63 52 43 31 15 7 9 33 26 30 31 32 44 47 46 49 47 59
38 53 75 88 96 100 98 88 83 79 71 63 61 61 60 63 63 60 65 64 62 56 60 64 55 58 52 40 27 24 27 41 36 43 62 54 47 48 43 49 54 60 54
42 40 46 69 92 98 99 90 85 79 72 62 55 50 53 59 63 55 50 51 50 58 61 53 57 53 54 49 35 42 65 82 77 64 62 67 76 61 47 53 70 63 67
56 52 48 52 63 81 90 84 81 73 65 58 50 52 54 56 56 57 60 62 59 57 59 62 61 53 39 46 49 91 105 81 63 65 69 77 63 75 71 70 75 78 58
Wind_Direction_850mb
182 183 181 177 175 174 174 171 169 168 169 164 157 152 152 148 145 142 139 140 142 141 139 134 132 129 119 114 112 107 104 98 92 86 81 78 75 69 63 60 58 57 60
177 180 179 177 177 177 179 178 176 172 171 167 161 161 163 153 149 144 143 145 144 143 140 137 132 124 121 119 118 111 105 98 89 82 79 78 75 71 69 67 63 55 54
179 175 178 176 178 177 178 177 177 175 171 170 169 170 169 158 152 149 147 147 145 143 142 136 131 127 125 122 119 114 102 93 87 84 80 74 72 69 67 64 61 52 48
179 175 178 177 178 178 178 178 176 175 174 174 175 177 171 163 157 153 149 150 148 145 143 139 134 131 129 127 123 112 100 95 88 84 75 74 70 65 62 60 56 51 47
181 177 179 178 179 180 180 180 181 180 180 181 183 181 174 166 161 156 154 154 152 151 148 143 137 133 133 131 122 114 101 90 77 72 69 68 68 61 58 52 50 46 41
180 182 182 183 182 183 184 185 188 187 187 189 187 183 175 170 164 160 159 158 158 156 152 146 139 135 134 131 123 114 95 76 60 59 57 50 48 49 57 49 46 38 36
178 183 185 185 187 188 189 191 194 192 190 191 189 183 177 173 168 166 164 164 162 160 154 151 143 144 142 139 134 121 85 36 12 5 18 20 25 38 36 33 27 23 21
181 184 187 188 190 193 194 197 198 196 193 191 189 185 179 176 172 171 171 170 168 163 160 153 148 147 140 129 118 114 15 348 351 334 333 323 328 343 16 8 3 356 357
184 187 189 189 193 197 199 201 202 201 198 194 191 187 183 181 178 177 178 177 172 169 164 156 156 155 147 134 127 325 332 331 328 322 331 336 328 266 296 330 347 332 321
190 196 195 193 194 197 202 204 207 206 202 199 193 189 187 185 184 184 183 181 179 175 170 167 171 168 166 175 211 267 290 294 302 298 304 317 336 298 252 273 311 307 297
196 200 203 200 199 198 201 204 208 209 205 201 198 195 191 191 188 189 189 186 183 182 182 181 184 184 190 204 236 261 278 284 284 293 298 305 319 326 306 281 297 298 288
201 203 206 206 204 203 203 203 206 206 203 202 201 200 198 195 193 194 193 192 190 191 194 195 197 204 217 233 244 254 224 104 19 348 302 293 293 298 301 293 291 288 281
207 207 209 211 210 207 205 206 204 206 205 202 202 204 202 200 200 197 195 197 197 199 201 204 208 225 248 254 246 192 177 156 35 336 312 300 292 288 285 292 297 298 283
222 219 215 216 216 213 210 209 209 210 208 206 203 204 207 205 206 203 201 204 206 208 210 212 222 241 230 204 191 187 198 275 333 330 321 302 295 291 284 282 296 320 307
229 229 226 222 220 218 215 214 213 213 213 212 209 208 209 209 209 208 207 207 213 216 220 224 229 236 233 229 227 228 265 298 323 334 337 317 305 293 286 273 274 291 312
235 233 230 229 232 226 221 220 220 218 216 215 215 216 216 215 214 217 214 215 216 221 227 233 236 237 245 260 270 279 282 287 302 329 332 323 307 294 283 278 281 292 298
233 223 226 229 233 232 229 227 226 223 221 220 219 221 220 219 221 223 222 225 223 234 231 244 250 244 251 262 276 283 287 286 290 324 325 343 343 330 299 278 283 294 292
234 229 228 228 228 232 228 228 228 226 225 225 224 226 227 226 226 227 229 228 233 231 232 241 243 251 252 266 280 289 290 287 290 295 276 34 22 15 356 330 324 318 286
233 225 229 228 227 226 228 228 230 230 229 230 234 238 237 239 232 228 232 232 232 235 239 244 247 250 258 266 276 285 293 291 292 286 247 115 18 7 335 330 306 317 304
235 231 230 224 220 220 223 226 230 232 232 225 222 224 212 241 237 231 232 237 236 234 236 242 248 257 259 267 276 289 300 303 301 283 238 245 335 2 351 339 335 330 314
244 239 233 231 228 226 224 226 231 235 237 232 233 232 230 227 238 240 240 239 243 239 234 239 241 256 250 258 268 292 315 303 308 276 197 268 294 337 358 355 353 340 316
241 241 236 235 235 232 231 234 234 238 240 242 238 234 235 226 222 231 240 248 248 242 241 239 239 242 246 239 246 298 313 311 173 9 238 304 299 293 329 336 342 339 312
242 236 235 233 232 234 235 234 233 234 236 237 234 230 227 227 223 225 226 236 247 252 246 244 238 234 234 240 235 224 217 274 325 323 308 295 310 325 315 306 330 329 323
273 254 238 233 233 234 235 235 234 236 231 233 234 229 225 222 225 229 233 237 248 250 249 242 241 240 227 233 227 252 255 284 292 299 296 296 298 297 303 317 331 323 323
271 269 252 237 233 234 234 233 231 231 234 233 229 226 222 226 228 231 232 239 244 245 246 245 237 232 227 226 239 272 290 287 287 275 278 281 290 282 296 305 313 317 311
270 265 257 244 233 232 234 231 230 233 232 227 223 215 217 222 228 235 238 247 251 251 247 244 243 243 238 265 256 278 275 275 276 276 273 278 279 285 291 302 310 305 298